sat.trackr.live / text

‹ back to catalog

STARLINK-37564

NORAD 68902 · 2026-097H

PAYLOAD ACTIVE UNKNOWN

§ Identity

Operator
Country
US
Launch date
2026-04-30
Launch site
AFWTR
Launch vehicle
Mass (kg)
RCS (m²)

Purposes: comms

External: N2YO · Heavens-Above · Gunter

§ Orbital elements

Epoch: 2026-05-25T02:48:39.000384Z

Period
92.95 min
Inclination
97.2852°
Eccentricity
0.0001835
Mean motion
15.49209071 rev/d
Perigee alt
417.8 km
Apogee alt
420.3 km
Semi-major
6,797.2 km
B*
4.5257e-4
RAAN
340.8566°
Arg perigee
87.4253°
Mean anomaly
272.7208°
Rev number
394

§ Raw data

STARLINK-375641 68902U 26097H   26145.11711806  .00024618  00000+0  45257-3 0  99982 68902  97.2852 340.8566 0001835  87.4253 272.7208 15.49209071  3940

JSON: /api/v1/satellites/68902 · /tle

For live sub-satellite position, see the globe view (requires WebGL).

§ Visibility from observer

Set your observer location to see the next 7 days of passes ≥ 10°. The values pass through the URL so the page stays shareable.

No JS? Fill the form by hand. The geolocation button needs JavaScript.